Погода Свободный

Погода Свободный : погода сейчас, прогноз погоды и архив. Всё, что Вы хотите узнать о погоде Свободный!

Хотите узнать прогноз погоды Свободный? Тогда Вам сюда: Погода Свободный

Поиск расширенной информации на нашем сайте:

Другие новости

Новости СМИ2

Главная страница сайта

Новости сайта

02.10.2013

Напоминаем, что на нашем новом сайте вы можете получить высокодетализированные прогнозы погоды по пунктам России, СНГ и мира (включающие важные для авиации метеовеличины, такие как направление и скорость ветра, видимость, явления погоды, количество и форма облачности, нижняя и верхняя граница облачности), а также ознакомиться с разнообразными материалами по авиационной метеорологии и подборкой полезных ссылок на эту тему.

Сайт Метеоцентр.Азия посвящён разработке технологий оптимизации авиаметеорологического обслуживания, включая проектирование и перспективное создание нескольких автоматизированных авиаметеорологических систем:
- система выпуска высокодетальных прогностических карт явлений погоды для нижнего воздушного пространства по России и ближнему зарубежью;
- система верификации прогнозов TAF (выпускаемых синоптиками официальных АМСГ РФ и ближнего зарубежья) и AUTOTAF (выпускаемых сайтом Метеоцентр.Азия) - выявление ошибок, онлайн-сопоставление с фактической погодой METAR, автоматическое внесение коррективов в прогнозы при резком отклонении фактической погоды от прогноза, подсчёт оправдываемости прогнозов по элементам и в целом;
- система обработки, анализа и отображения авиаметеорологической информации для применения провайдерами метеорологической информации.

Рекомендуем: калькулятор стоимости пластиковых окон спб

Погода Свободный - сегодня

Время (UTC), дата Ветер
(°,м/с) 
Видим.   Явления Облачность Т
(°С)
Тd
(°С)
f(%) Тe
(°С)
Pmin
(гПа)
dP
(гПа)
Po
(мм)
O2
(г/м3)
Тmin Tmax R s Состояние
почвы
12 18.02.17 310 (СЗ) 50000 м    ясно 
-22.4 -31.4 44 -23  1021.3  0.4  745  329    -14.4       
15 18.02.17 280 (З) 50000 м    ясно 
-28.2 -33.1 63 -29  1021.6  -0.4  745  337           
18 18.02.17 340 (С) 50000 м    ясно 
-32.1 -35.9 69 -33  1021.8  -0.2  745  342           
21 18.02.17 310 (СЗ) 50000 м    ясно 
-33.9 -37.8 68 -35  1021.4  -0.6  745  345           
00 19.02.17 тихо ()   20000 м    ясно 
-31.2 -35.9 63 -31  1021.6  0.5  745  341  -35.1      15  равномерный
сухой снег
100% 
03 19.02.17 110 (В) 20000 м    ясно 
-16.2 -29.8 30 -16  1019.5  -0.4  745  321           
06 19.02.17 100 (В) 20000 м    ясно 
-12.8 -29.7 23 -13  1017.7  -1.4  744  316           
09 19.02.17 180 (Ю) 20000 м    ясно 
-17.1 -29.3 34 -17  1018.3  0.1  744  321           
12 19.02.17 тихо ()   50000 м    ясно 
-21.4 -29.3 49 -21  1019.5  0.8  744  327    -12.6       
15 19.02.17 310 (СЗ) 50000 м    ясно 
-25.5 -31.5 57 -26  1020.4  0.4  745  333           
18 19.02.17 300 (СЗ) 50000 м    ясно 
-28.8 -33.4 64 -29  1020.8  -0.1  744  337           
21 19.02.17 310 (СЗ) 50000 м    ясно 
-29.7 -34 66 -30  1021.2  0.4  745  339           
00 20.02.17 290 (З) 20000 м    ясно 
-21.3 -29.9 46 -27  1021.8  1.5  746  328  -30.8      15  равномерный
сухой снег
100% 
03 20.02.17 290 (З) 20000 м    ясно 
-12.2 -26.6 29 -16  1026.6  0.1  746  316           
06 20.02.17 300 (СЗ) 20000 м    ясно 
-9.5 -23.5 31 -14  1020.3  -0.5  746  313           
09 20.02.17 310 (СЗ) 20000 м    ясно 
-10.9 -23.7 34 -13  1021.3  0.9  746  315           
12 20.02.17 290 (З) 50000 м    ясно 
-15.6 -24.6 46 -19  1023.4  1.5  747  321    -8.8       
15 20.02.17 290 (З) 50000 м    ясно 
-18.2 -25 55 -23  1023.9  0.2  748  324           
18 20.02.17 290 (З) 50000 м    ясно 
-19 -25.2 58 -23  1024.3  0.4  748  326           
21 20.02.17 тихо ()   50000 м    ясно 
-22.9 -26.6 72 -23  1025.3  0.5  748  331           
00 21.02.17 тихо ()   20000 м    ясно 
-19.4 -26.4 54 -19  1025.1  0.2  748  326  -25.5      15  равномерный
сухой снег
100% 
03 21.02.17 140 (ЮВ) 20000 м    ясно 
-7.5 -21.8 31 -9  1022.5  -1.3  747  311           
06 21.02.17 160 (Ю) 20000 м    4/0 верхняя 
[Ci fib]
-5.8 -20.3 31 -8  1019.7  -2.5  746  308           
09 21.02.17 160 (Ю) 20000 м    4/0 средняя 
[Ac trans]
-11.2 -19 52 -13  1019.2  -1.1  745  314           
12 21.02.17 090 (В) 50000 м    10/0 верхняя 
[Ci fib]
-16.2 -19.6 75 -16  1018.7  -1  744  320    -5       
Время (UTC), дата Ветер
(°,м/с) 
Видим.   Явления Облачность Т
(°С)
Тd
(°С)
f(%) Тe
(°С)
Pmin
(гПа)
dP
(гПа)
Po
(мм)
O2
(г/м3)
Тmin Tmax R s Состояние
почвы

Для получения пояснительной информации подведите курсор к названию столбца.

ПОГОДА Свободный - архив

Всё, что Вы хотите узнать о погоде Свободный - удобно и подробно!

Выберите нужную дату (начиная с 1 января 2015* года) и нажмите кнопку "Найти".
Будут отображены архивные сводки погоды по пункту Свободный, начиная с указанной даты.


Отображать данные в формате CSV (для использования в таблицах Excel)


Внимание! Наш архив погоды предназначен исключительно для личного некоммерческого использования в познавательных целях. Если Вам необходимы официальные справки о состоянии погоды (для производственных, юридических, коммерческих и т.п. целей), обращайтесь в органы Росгидромета.

*Примечание: данная дата относится к архиву по метеостанциям СССР (Россия, СНГ, Балтия).
Архив по метеостанциям Зарубежной Европы и Азии (кроме Китая) хранится 10 дней, по другим регионам земного шара (Китай, Африка, Америка, Австралия, Океания) - 1 день.

Свободный - район местоположения метеостанции


Название, широта, долгота, высота метеостанции:
Свободный 51.4°ш. 128.1°д. 197 м над ур. моря [Российская Федерация]

Дополнительная информация

В oтличие oт бoльшинства пoгoдных сайтoв мы публикуем пoдрoбную метеoинфoрмацию в детальнoм прoфессиoнальнoм фoрмате.

Характеристики температуры и влажнoсти вoздуха измеряются на высoте 2 м в тени вдали oт зданий и деревьев.
Скoрoсть ветра измеряется на высoте 10 м (на урoвне рoста челoвека скoрoсть ветра ниже в 1.5-2 раза). Если метеoстанция нахoдится в гoрoде или в лесу, тo скoрoсть ветра занижена на 2-4 м/с пo сравнению с oткрытым местoм. Скoрoсть ветра над акватoриями крупных рек и oзёр, а также на вершинах хoлмoв на 2-5 м/с выше, чем в oбычных услoвиях.
Атмoсфернoе давление в разных тoчках местнoсти мoжет значительнo oтличаться oт давления на метеoстанции, в зависимoсти oт услoвий рельефа (при пoдъёме на 10 м давление пoнижается примернo на 1 мм рт.ст.).